Atka, AK

3:12 AM HDT on September 21, 2017 (GMT -0900)
Atka

Weather History for PAAK - March, 2013

Change the Weather History Date:

Thursday, March 21, 2013

  Actual Average (PADK) Record (PADK)
Temperature  
Mean Temperature 37 °F -  
Max Temperature 39 °F 38 °F 50 °F (1991)
Min Temperature 35 °F 29 °F 15 °F (1989)
Degree Days  
Heating Degree Days 28    
Moisture  
Dew Point 34 °F    
Average Humidity 86    
Maximum Humidity 93    
Minimum Humidity 75    
Precipitation  
Precipitation 0.00 in - - ()
Sea Level Pressure  
Sea Level Pressure 29.96 in    
Wind  
Wind Speed 7 mph (SE)    
Max Wind Speed 15 mph    
Max Gust Speed 21 mph    
Averages and records for this station are not official NWS values.
T = Trace of Precipitation, MM = Missing Value Source: NWS Daily Summary

Daily Weather History Graph

Daily Weather History Graph

Search for Another Location

Airport or City:

Trip Planner

Search our weather history database for the weather conditions in past years. The results will help you decide how hot, cold, wet, or windy it might be!

Date:

Astronomy

Mar. 21, 2013 Rise Set
Actual Time 8:35 AM HDT 8:52 PM HDT
Civil Twilight 8:01 AM HDT 9:26 PM HDT
Nautical Twilight 7:21 AM HDT 10:07 PM HDT
Astronomical Twilight 6:39 AM HDT 10:49 PM HDT
Moon 3:01 PM HDT 5:43 AM HDT
Length of Visible Light 13h 24m
Length of Day
12h 16m
Waxing Gibbous, 70% of the Moon is Illuminated
Mar 21
Waxing Gibbous
Mar 27
Full
Apr 2
Last Quarter
Apr 10
New
Apr 18
First Quarter

Hourly Weather History & Observations

Time (HDT) Temp. Windchill Dew Point Humidity Pressure Visibility Wind Dir Wind Speed Gust Speed Precip Events Conditions
12:16 AM 37.4 °F 30.8 °F 30.2 °F 75% 30.07 in - SE 9.2 mph - N/A   Overcast
12:36 AM 37.4 °F 30.8 °F 30.2 °F 75% 30.06 in - SE 9.2 mph - N/A   Overcast
12:56 AM 37.4 °F 30.8 °F 30.2 °F 75% 30.06 in - SSE 9.2 mph - N/A   Overcast
1:16 AM 37.4 °F 32.1 °F 30.2 °F 75% 30.05 in - SE 6.9 mph - N/A   Overcast
1:36 AM 37.4 °F 33.8 °F 30.2 °F 75% 30.05 in - SSE 4.6 mph - N/A   Overcast
1:56 AM 37.4 °F 31.4 °F 30.2 °F 75% 30.04 in - SSE 8.1 mph - N/A   Overcast
2:16 AM 37.4 °F 32.8 °F 30.2 °F 75% 30.05 in - SE 5.8 mph - N/A   Overcast
2:36 AM 37.4 °F 34.9 °F 30.2 °F 75% 30.04 in - South 3.5 mph - N/A   Overcast
2:56 AM 37.4 °F 32.8 °F 30.2 °F 75% 30.03 in - SSE 5.8 mph - N/A   Overcast
3:16 AM 37.4 °F - 30.2 °F 75% 30.03 in - Calm Calm - N/A   Overcast
3:36 AM 37.4 °F - 32.0 °F 81% 30.03 in - Calm Calm - N/A   Overcast
3:56 AM 35.6 °F - 30.2 °F 81% 30.03 in - Calm Calm - N/A   Overcast
4:16 AM 35.6 °F - 32.0 °F 87% 30.03 in - Calm Calm - N/A   Overcast
4:36 AM 37.4 °F - 33.8 °F 87% 30.01 in - Calm Calm - N/A   Overcast
4:56 AM 37.4 °F 31.4 °F 33.8 °F 87% 30.00 in - ESE 8.1 mph - N/A   Overcast
5:16 AM 37.4 °F 33.8 °F 33.8 °F 87% 29.99 in - ESE 4.6 mph - N/A   Overcast
5:36 AM 37.4 °F 33.8 °F 33.8 °F 87% 29.99 in - SSE 4.6 mph - N/A   Overcast
5:56 AM 37.4 °F - 33.8 °F 87% 30.00 in - Calm Calm - N/A   Overcast
6:16 AM 37.4 °F 33.8 °F 33.8 °F 87% 30.00 in - SSE 4.6 mph - N/A   Overcast
6:36 AM 37.4 °F 32.8 °F 33.8 °F 87% 29.99 in - SE 5.8 mph - N/A   Overcast
6:56 AM 37.4 °F 33.8 °F 33.8 °F 87% 29.98 in - ESE 4.6 mph - N/A   Overcast
7:16 AM 37.4 °F 34.9 °F 35.6 °F 93% 29.98 in - ESE 3.5 mph - N/A   Overcast
7:36 AM 37.4 °F 32.8 °F 33.8 °F 87% 29.99 in - South 5.8 mph - N/A   Overcast
7:56 AM 37.4 °F 32.8 °F 33.8 °F 87% 29.99 in - SSE 5.8 mph - N/A   Overcast
8:16 AM 37.4 °F - 33.8 °F 87% 29.98 in - Calm Calm - N/A   Overcast
8:36 AM 37.4 °F 32.8 °F 33.8 °F 87% 29.98 in - SSE 5.8 mph - N/A   Overcast
8:56 AM 37.4 °F 32.8 °F 33.8 °F 87% 29.98 in - SSE 5.8 mph - N/A   Overcast
9:16 AM 37.4 °F 32.1 °F 33.8 °F 87% 29.98 in - South 6.9 mph - N/A   Overcast
9:36 AM 37.4 °F 31.4 °F 33.8 °F 87% 29.98 in - SSE 8.1 mph - N/A   Overcast
9:56 AM 37.4 °F 32.8 °F 33.8 °F 87% 29.98 in - SSE 5.8 mph - N/A   Overcast
10:16 AM 37.4 °F 32.8 °F 33.8 °F 87% 29.98 in - South 5.8 mph - N/A   Overcast
10:36 AM 37.4 °F 32.1 °F 33.8 °F 87% 29.98 in - SSE 6.9 mph - N/A   Overcast
10:56 AM 37.4 °F 33.8 °F 33.8 °F 87% 29.98 in - SE 4.6 mph - N/A   Overcast
11:16 AM 37.4 °F 32.8 °F 35.6 °F 93% 29.98 in - South 5.8 mph - N/A   Overcast
11:36 AM 37.4 °F 32.1 °F 35.6 °F 93% 29.97 in - SE 6.9 mph - N/A   Overcast
11:56 AM 37.4 °F - 35.6 °F 93% - - North - - N/A   Overcast
12:16 PM 39.2 °F 35.0 °F 35.6 °F 87% 29.97 in - SSE 5.8 mph - N/A   Overcast
12:36 PM 39.2 °F 33.6 °F 35.6 °F 87% 29.96 in - SSE 8.1 mph - N/A   Overcast
12:56 PM 39.2 °F 33.0 °F 35.6 °F 87% 29.96 in - SSE 9.2 mph - N/A   Overcast
1:16 PM 39.2 °F 33.6 °F 35.6 °F 87% 29.96 in - SE 8.1 mph - N/A   Overcast
1:36 PM 39.2 °F 33.0 °F 35.6 °F 87% 29.95 in - SSE 9.2 mph - N/A   Overcast
1:56 PM 39.2 °F 32.0 °F 35.6 °F 87% 29.95 in - South 11.5 mph - N/A   Overcast
2:16 PM 39.2 °F 31.6 °F 35.6 °F 87% 29.95 in - South 12.7 mph - N/A   Overcast
2:36 PM 39.2 °F 32.0 °F 35.6 °F 87% 29.95 in - South 11.5 mph - N/A   Overcast
2:56 PM 39.2 °F 33.6 °F 35.6 °F 87% 29.94 in - South 8.1 mph - N/A   Overcast
3:16 PM 39.2 °F 32.5 °F 35.6 °F 87% 29.94 in - SSE 10.4 mph - N/A   Overcast
3:36 PM 39.2 °F 32.5 °F 33.8 °F 81% 29.95 in - South 10.4 mph - N/A   Overcast
3:56 PM 39.2 °F 31.2 °F 35.6 °F 87% 29.95 in - South 13.8 mph - N/A   Overcast
4:16 PM 39.2 °F 32.0 °F 35.6 °F 87% 29.94 in - South 11.5 mph - N/A   Unknown
4:36 PM 39.2 °F 32.0 °F 33.8 °F 81% 29.93 in - South 11.5 mph - N/A   Overcast
4:56 PM 39.2 °F 33.0 °F 33.8 °F 81% 29.93 in - South 9.2 mph - N/A   Overcast
5:16 PM 39.2 °F 32.0 °F 33.8 °F 81% 29.92 in - SE 11.5 mph - N/A   Overcast
5:36 PM 39.2 °F 33.6 °F 33.8 °F 81% 29.92 in - SSE 8.1 mph - N/A   Overcast
5:56 PM 39.2 °F 37.0 °F 33.8 °F 81% 29.92 in - South 3.5 mph - N/A   Overcast
6:16 PM 39.2 °F 33.6 °F 33.8 °F 81% 29.92 in - SSE 8.1 mph - N/A   Overcast
6:36 PM 39.2 °F 32.0 °F 33.8 °F 81% 29.92 in - SSE 11.5 mph - N/A   Overcast
6:56 PM 37.4 °F 31.4 °F 35.6 °F 93% 29.91 in - SE 8.1 mph - N/A   Overcast
7:16 PM 37.4 °F 32.1 °F 33.8 °F 87% 29.90 in - ESE 6.9 mph - N/A   Overcast
7:36 PM 37.4 °F 30.8 °F 33.8 °F 87% 29.90 in - SE 9.2 mph - N/A   Overcast
7:56 PM 37.4 °F 32.1 °F 35.6 °F 93% 29.90 in - SE 6.9 mph - N/A   Overcast
8:16 PM 37.4 °F 31.4 °F 33.8 °F 87% 29.90 in - ESE 8.1 mph - N/A   Overcast
8:36 PM 37.4 °F 32.8 °F 35.6 °F 93% 29.90 in - ESE 5.8 mph - N/A   Overcast
8:56 PM 37.4 °F 30.3 °F 35.6 °F 93% 29.89 in - ESE 10.4 mph - N/A   Overcast
9:16 PM 37.4 °F 30.8 °F 33.8 °F 87% 29.90 in - ESE 9.2 mph - N/A   Overcast
9:36 PM 37.4 °F 30.3 °F 35.6 °F 93% 29.90 in - ESE 10.4 mph - N/A   Overcast
9:56 PM 37.4 °F 30.3 °F 35.6 °F 93% 29.90 in - ESE 10.4 mph - N/A   Overcast
10:16 PM 37.4 °F 28.5 °F 35.6 °F 93% 29.90 in - SSE 15.0 mph 20.7 mph N/A   Unknown
10:36 PM 37.4 °F 30.3 °F 35.6 °F 93% 29.90 in - SSE 10.4 mph - N/A   Unknown
10:56 PM 37.4 °F 29.8 °F 35.6 °F 93% 29.89 in - ESE 11.5 mph - N/A   Overcast
11:16 PM 37.4 °F 28.5 °F 35.6 °F 93% 29.88 in - ESE 15.0 mph - N/A   Overcast
11:36 PM 37.4 °F 28.9 °F 35.6 °F 93% 29.88 in - ESE 13.8 mph - N/A   Overcast
11:56 PM 37.4 °F 28.5 °F 35.6 °F 93% 29.87 in - ESE 15.0 mph 19.6 mph N/A   Overcast